Regional Weather Roundup
Issued by NWS Jackson, KY

Home | Current Version | Previous Version | Text Only | Print | Product List | Glossary On
Versions: 1 2 3 4 5 6 7 8 9 10 11 12 13 14 15 16 17 18 19 20 21 22 23 24 25 26 27 28 29 30 31 32 33 34 35 36 37 38 39 40 41 42 43 44 45 46 47 48 49 50
298
ASUS43 KJKL 212010
RWRJKL

EAST KENTUCKY HOURLY WEATHER ROUNDUP
NATIONAL WEATHER SERVICE JACKSON KY
400 PM EDT SAT SEP 21 2019

NOTE: "FAIR" INDICATES FEW OR NO CLOUDS BELOW 12,000 FEET WITH
NO SIGNIFICANT WEATHER AND/OR OBSTRUCTIONS TO VISIBILITY.

* THESE REPORTS ARE NOT UNDER NWS QUALITY CONTROL AND MAY NOT
  REPORT WEATHER SUCH AS PRECIPITATION AND FOG.

KYZ079-080-083-085-087-088-110-112-115-119-120-212100
...EASTERN KENTUCKY...

CITY           SKY/WX    TMP DP  RH WIND       PRES   REMARKS
JACKSON        PTSUNNY   85  58  39 VRB3      30.23F
LONDON           N/A     86  57  37 CALM      30.23F
SOMERSET*        N/A     88  48  25 S7        30.22F
MONTICELLO*    PTSUNNY   89  59  36 VRB7G16   30.23F
WILLIAMSBURG*    N/A     86  57  37 SE7       30.23F
MIDDLESBORO*     N/A     85  59  41 SE3       30.24F
HARLAN APT*      N/A     85  59  41 CALM      30.25F
PIKE CO APT*     N/A     87  58  37 W6        30.24F
BIG SANDY APT*   N/A     90  59  35 W8        30.23F
MOREHEAD APT*  MOCLDY    84  59  42 CALM      30.23F
ASHLAND*         N/A     90  66  45 CALM      30.19F HX  92
$$

KYZ035-036-041-042-044-050-067-078-099-212100
...CENTRAL KENTUCKY...

CITY           SKY/WX    TMP DP  RH WIND       PRES   REMARKS
MT STERLING*     N/A     88  59  37 S6        30.23F
FLEMING/MASON*   N/A     90  59  36 W7        30.21F
DANVILLE*        N/A     88  55  33 SW7       30.22F
LEXINGTON        N/A     89  56  32 VRB3      30.20F
FRANKFORT        N/A     88  60  38 VRB5      30.19F
LOUISVILLE     PTSUNNY   91  55  29 S9G17     30.16F
LEBANON*         N/A     90  57  33 S8        30.20F
GLASGOW*         N/A     90  53  28 S6        30.19F
BOWLING GREEN    N/A     89  56  32 SW10      30.19F
$$

KYZ091>093-OHZ055-061-077-WVZ005-015-034-035-042-212100
...SOUTHERN OHIO/WEST VIRGINIA...

CITY           SKY/WX    TMP DP  RH WIND       PRES   REMARKS
COVINGTON      PTSUNNY   88  58  36 SW14      30.18F
COLUMBUS         N/A     83  66  56 SW5       30.18F
DAYTON         PTSUNNY   84  65  52 S6        30.18F
WILMINGTON       N/A     85  65  51 SW12      30.18F
HUNTINGTON     CLOUDY    87  64  46 VRB5      30.20F
CHARLESTON     PTSUNNY   86  62  44 E5        30.22F
PINEVILLE*     PTSUNNY   87  57  36 MISG      30.29F
BECKLEY        PTSUNNY   82  59  45 N3        30.29F
BLUEFIELD      PTSUNNY   80  55  42 N7        30.31F
LOGAN CO APT*    N/A     86  59  39 VRB5      30.24F
$$

VAZ002-007-008-TNZ017-027-036-066-071-212100
...SOUTHWEST VIRGINIA/EAST TENNESSEE...

CITY           SKY/WX    TMP DP  RH WIND       PRES   REMARKS
WISE*          CLOUDY    79  55  44 S3        30.33F
JONESVILLE*      N/A     86  57  37 MISG      30.27F
ABINGDON*        N/A     83  59  45 NW3       30.28F
BRISTOL          N/A     86  60  41 S6        30.25F
MORRISTOWN*    CLEAR     86  57  37 VRB5      30.23F
SEVIERVILLE*   CLEAR     90  59  35 W5G12     30.21F
KNOXVILLE        N/A     87  56  34 W7        30.22F
LAFOLLETTE*    CLEAR     86  59  39 S5        30.26F
OAK RIDGE        N/A     87  58  37 MISG      30.24F
CROSSVILLE       N/A     83  55  38 VRB5      30.27F
NASHVILLE        N/A     92  51  24 VRB6      30.18F
$$

...KEY TO REMARKS...
VSB - VISIBILITY IN MILES
WCI - WIND CHILL INDEX
HX  - HEAT INDEX

$$




USA.gov is the U.S. government's official web portal to all federal, state and local government web resources and services.